Regional Weather Roundup
Issued by NWS

Home | Current Version | Previous Version | Text Only | Print | Product List | Glossary Off
Versions: 1 2 3 4 5 6 7 8 9 10 11 12 13 14 15 16 17 18 19 20 21 22 23 24 25 26 27 28 29 30 31 32 33 34 35 36 37 38 39 40 41 42 43 44 45 46 47 48 49 50

000
ASUS43 KLOT 280308
RWRIL

ILLINOIS REGIONAL WEATHER ROUNDUP
NATIONAL WEATHER SERVICE CHICAGO/ROMEOVILLE IL
1000 PM CDT FRI MAY 27 2016

NOTE: "FAIR" INDICATES FEW OR NO CLOUDS BELOW 12,000 FEET WITH NO
SIGNIFICANT WEATHER AND/OR OBSTRUCTIONS TO VISIBILITY.

* THESE STATIONS ARE NOT UNDER NWS QUALITY CONTROL. THEY ALSO MAY NOT
  REPORT WEATHER SUCH AS PRECIPITATION OR FOG.

ILZ001-002-007-009-015-016-024-280400-
NORTHWEST ILLINOIS

CITY           SKY/WX    TMP DP  RH WIND       PRES   REMARKS
MOLINE         MOCLDY    74  67  78 S8        29.77R
STERLING*      CLOUDY    73  68  84 VRB5      29.80R
SAVANNA*       PTCLDY    73  67  80 S12       29.78R
$$

ILZ003-004-008-010-011-017-018-280400-
NORTH CENTRAL ILLINOIS

CITY           SKY/WX    TMP DP  RH WIND       PRES   REMARKS
ROCKFORD       MOCLDY    74  67  78 S12       29.83R
FREEPORT*      PTCLDY    70  66  87 S10       29.82R
ROCHELLE*      CLOUDY    72  67  84 S17       29.83R
DE KALB*       CLOUDY    70  66  86 S17       29.86R
$$

ILZ005-006-012>014-019>023-280400-
NORTHEAST ILLINOIS

CITY           SKY/WX    TMP DP  RH WIND       PRES   REMARKS
CHICAGO-OHARE  LGT RAIN  71  65  81 S17       29.87R
CHICAGO-MIDWAY CLOUDY    71  66  84 S9        29.88R
AURORA         CLOUDY    71  65  81 S20       29.86R
LANSING*       RAIN      70  66  89 S10       29.90R
JOLIET*        CLOUDY    70  67  90 S5        29.87S
WAUKEGAN       CLOUDY    68  65  90 S13       29.86R
DUPAGE AIRPORT LGT RAIN  69  65  86 S17G23    29.86R
KANKAKEE*      CLOUDY    68  65  88 S9        29.90R
WHEELING       CLOUDY    71  65  81 S14G22    29.87R
MORRIS*        LGT RAIN  70  66  86 S12       29.85R
ROMEOVILLE*    MOCLDY    69  64  85 S13       29.87S
NORTHERLY ISL    N/A     70  65  84 S6          N/A
NORTHERLY ISL    N/A     70  65  84 S6          N/A
$$

LMZ740>746-280400-
SOUTHERN LAKE MICHIGAN

STATION/POSITION SKY/WX   TEMP    WIND        PRES    VSBY  WAVE
                          AIR SEA DIR/SP/G                  HT/PER
                          (F)     (DEG/KT/KT) (MB)    (MI)  (FT/S)
SOUTHERN BUOY              58 50  160/ 16/ 17 1011.6R         1/ 3
WILMETTE HARBOR            62 54  190/ 10/ 12   N/A           3/ 3
HARRISON CRIB              69     210/ 27/ 28   N/A
BURNHAM HARBOR             70     180/  6/ 19   N/A
CALUMET HARBOR                    180/  5/ 12 1011.2R
BURNS HARBOR               71     180/ 14/ 22 1012.9R
MICHIGAN CITY              72     180/ 11/ 12   N/A
MICHIGAN CITY 6N           68 59  200/ 16/ 23   N/A           1
ST. JOSEPH                 64 62  190/  4/  4   N/A           1/ 3
$$

ILZ025>027-034>036-040-047-049-050-058-095>099-280400-
WEST-CENTRAL ILLINOIS

CITY           SKY/WX    TMP DP  RH WIND       PRES   REMARKS
QUINCY         CLOUDY    68  66  93 S8        29.78R
GALESBURG*     CLOUDY    73  67  83 SE8       29.79R
MACOMB*        LGT RAIN  71  68  91 S18G26    29.81R
JACKSONVILLE*  CLOUDY    72  67  86 S13G18    29.82R
PITTSFIELD*    CLOUDY    71  67  89 S14       29.81R
$$

ILZ028>032-037-038-041>044-048-051>054-059>061-280400-
CENTRAL ILLINOIS

CITY           SKY/WX    TMP DP  RH WIND       PRES   REMARKS
PONTIAC        CLOUDY    71  69  93 S17       29.87R
BLOOMINGTON    CLOUDY    69  68  97 S18G25    29.88R
DECATUR        CLOUDY    70  65  84 S12       29.88R
PEORIA         LGT RAIN  71  67  87 S14G23    29.83R
LACON*         LGT RAIN  69  66  90 S12       29.82R
LINCOLN*       CLOUDY    70  68  92 S12G18    29.85R
SPRINGFIELD    CLOUDY    72  67  84 S15G24    29.84R
TAYLORVILLE    CLOUDY    69  66  91 S10G16    29.86S
$$

ILZ033-039-045-046-055>057-062-063-280400-
EAST-CENTRAL ILLINOIS

CITY           SKY/WX    TMP DP  RH WIND       PRES   REMARKS
CHAMPAIGN      CLOUDY    68  65  90 S13       29.90R
RANTOUL*       CLOUDY    70  67  89 S12       29.91R
MATTOON        CLOUDY    68  64  87 S8        29.90R
PARIS*         CLOUDY    68  67  96 CALM      29.93R
$$

ILZ079-100>102-280400-
SOUTHWEST ILLINOIS

CITY           SKY/WX    TMP DP  RH WIND       PRES   REMARKS
ALTON          CLOUDY    70  66  88 S14       29.84S
BELLEVILLE     CLOUDY    70  70 100 E6        29.83S
CAHOKIA*       CLOUDY    72  67  84 S10       29.83R
SPARTA*        MOCLDY    69  68  96 SE9       29.86R
$$

ILZ064>066-069>071-074>076-080>082-084>086-088>090-092>094-280400-
SOUTH-CENTRAL ILLINOIS

CITY           SKY/WX    TMP DP  RH WIND       PRES   REMARKS
CARBONDALE     PTCLDY    69  66  90 E8        29.86F
CAIRO*         CLOUDY    74  67  78 S10       29.87R
EFFINGHAM*     CLOUDY    68  68 100 SE6       29.93R
MARION         PTCLDY    72  68  88 E5        29.89S
MT. VERNON     CLOUDY    70  64  83 SE3       29.90S
CENTRALIA*     CLOUDY    69  69  98 SE7       29.87F
SALEM*         MOCLDY    69  67  92 SE3       29.89S
METROPOLIS*    PTCLDY    75  68  79 CALM      29.89R
$$

ILZ067-068-072-073-078-083-087-091-280400-
SOUTHEAST ILLINOIS

CITY           SKY/WX    TMP DP  RH WIND       PRES   REMARKS
LAWRENCEVILLE  CLOUDY    76  63  64 S8        29.93R
FLORA*         CLOUDY    69  68  95 SE3       29.91S
FAIRFIELD*     CLOUDY    71  68  89 SE3       29.89S
HARRISBURG*    CLOUDY    73  67  80 SE6       29.90R
ROBINSON*      CLOUDY    70  68  93 SE3       29.94R
CARMI*         MOCLDY    72  65  81 SE8       29.91R
$$

ABBREVIATIONS USED IN REMARKS
   TC - TEMPERATURE IN CELSIUS
  WCI - WIND CHILL INDEX
   HX - HEAT INDEX
  VSB - VISIBILITY
$$




USA.gov is the U.S. government's official web portal to all federal, state and local government web resources and services.